Showing default

TELSTAR 19V, 43562

Orbit data source: Space-Track

TELSTAR 19V, 43562 is a payload satellite owned by Telesat/Skynet (CA) in GEO that was launched on Sun, 22 Jul 2018 UTC via an FALCON 9 launch vehicle from the Air Force Eastern Test Range (AFETR). Payload-class satellites include a variety of spacecraft equipped with specific instruments for various scientific and technological missions. These include communications satellites like Starlink; space stations such as the ISS; scientific satellites like the Hubble; Earth observation satellites from companies like Planet Labs, Umbra, and HawkEye 360; GPS; miniature CubeSats for education and research; and military/defense satellites.

Loading next visibility...
Identifier
43562, 2018-059A
Orbit
GEO
Last TLE update
7 hours ago
Origin
Manufacturer
Maxar SSL
Mission
Operational Commercial Communications
Bus & Motor
LS-1300, R-4D
Mass
7,075 kg wet, ~2,000 kg dry
Launch date (UTC)
2018-07-22 (7 years ago)
Launch vehicle
FALCON 9
Launch site
Air Force Eastern Test Range (AFETR)
Object type
Payload
Rocket body
Debris
Shape & HBR
Box + 2 Pan, 13.1 m
Radar Cross Section
120.644 m², Large (>1 m²)

Expand to show TLE details & history

TLE from 7 hours ago
0 TELSTAR 19V
1 43562U 18059A   25200.06780689 -.00000275  00000-0  00000+0 0  9990
2 43562   0.0367 192.5221 0002942 299.8744 126.1057  1.00269640 25827
Epoch: 2025-07-19T01:37Z
TLE epoch observation values (Epoch: 2025-07-19T01:37:38.515Z)
Latitude
0.01225°
Longitude
-62.98529°
Altitude
35,794.049 km
Speed
3.074 km/s
True Right ascension
17h 14m 08s
True Declination
0° 00' 44"
Sunlit
Object was in daylight at epoch
Visualization orbit readout
Latitude
-0.018°
Longitude
41.11564°
Altitude
35,794.65 km
Speed
3.074 km/s
Apparent Right ascension
00h 30m 01s
Apparent Declination
-6° 01' 40"
Sunlit
Object is in daylight
Visualization observer readout
Local Sidereal Time
21:22:14
Azimuth
125.386° SE
Elevation
26.957°
Doppler factor
1
Orbital elements
Apogee altitude
35,800.672 km
Perigee altitude
35,775.861 km
Semi-major axis
42,166.404 km
Eccentricity
0.00029
Inclination
0.0367°
RAAN
192.5221°
Arg. of periapsis
299.8744°
True anomaly
126.13293°
Mean anomaly
126.1057°
Eccentric anomaly
126.11932°
Mean motion
0.25066 °/min
Orbital period
1,436.18 mins
BSTAR
0
Loading maneuver chart data...
Loading SW <> Apogee altitude chart data...
Loading historical data...
Loading historical data...
Loading historical data...
Loading historical data...
Loading historical data...
Loading historical data...
Loading historical data...
Other satellites on launch #59 in the year 2018 (2018-07-22 UTC)
|